STARLINK-3862, 52471

Orbit data source: Space-Track

STARLINK-3862, 52471 is a payload satellite owned by SpaceX/Seattle (US) in LEO that was launched on Fri, 06 May 2022 UTC via an FALCON 9 launch vehicle from the Air Force Eastern Test Range (AFETR). Payload-class satellites include a variety of spacecraft equipped with specific instruments for various scientific and technological missions. These include communications satellites like Starlink; space stations such as the ISS; scientific satellites like the Hubble; Earth observation satellites from companies like Planet Labs, Umbra, and HawkEye 360; GPS; miniature CubeSats for education and research; and military/defense satellites.

Loading next visibility...
Identifier
52471, 2022-049W
Orbit
LEO
Country
Flag of USUS
Related business
Manufacturer
SpaceX/Seattle
Mission
Operational Commercial Communications
Bus & Motor
STARLINK, Unknown motor
Mass
297 kg wet, ~220 kg dry
Launch date (UTC)
2022-05-06 (4 years ago)
Launch vehicle
FALCON 9
Launch site
Air Force Eastern Test Range (AFETR)
Object type
Payload
Rocket body
Debris
Shape & HBR
Box + 1 Pan, 10.1 m
Radar Cross Section
13.562 m², Large (>1 m²)

Expand to show TLE details & history
Last TLE update: 20 hours ago

TLE from 20 hours ago
0 STARLINK-3862
1 52471U 22049W   26206.55878853  .00001179  00000-0  49741-4 0  9998
2 52471  53.1619 154.9041 0001250  97.2731 262.8413 15.31702257233138
Epoch: 2026-07-25T13:24Z
TLE epoch observation values (Epoch: 2026-07-25T13:24:39.328Z)
Latitude
-0.00001°
Longitude
10.47089°
Altitude
471.741 km
Speed
7.631 km/s
True Right ascension
10h 19m 36s
True Declination
0° 00' 00"
Sunlit
Object was in daylight at epoch
Visualization orbit readout
Latitude
Unknown
Longitude
Unknown
Altitude
Unknown
Speed
Unknown
Apparent Right ascension
Unknown
Apparent Declination
Unknown
Sunlit
N/A
Visualization observer readout
Local Sidereal Time
22:10:49
Azimuth
Unknown
Elevation
Unknown
Doppler factor
Unknown
Orbital elements
Apogee altitude
471.846 km
Perigee altitude
470.133 km
Semi-major axis
6,849.127 km
Eccentricity
0.00013
Inclination
53.1619°
RAAN
154.9041°
Arg. of periapsis
97.2731°
True anomaly
262.82709°
Mean anomaly
262.8413°
Eccentric anomaly
262.83419°
Mean motion
3.82904 °/min
Orbital period
94.02 mins
BSTAR
0.000049741
Loading maneuver chart data...
Computing Atmospheric mass density...
Loading historical data...
Loading historical data...
Loading historical data...
Loading historical data...
Loading historical data...
Loading historical data...
Loading historical data...

Documentation

Showing up to 5 results
|